Theta_e
311 310 310 310 311 312 318 324 327 326 323 321 321 324 325 325 328 329 329 329 330 331 332 333 333 333 335 334 334 333 333 332 333 333 334 334 334 334 334 337 337 335 334 336
311 310 309 309 310 311 313 326 326 325 321 321 322 324 324 325 327 328 329 328 328 329 329 331 332 332 332 333 334 334 335 334 332 332 333 333 335 335 334 334 334 337 339 336
311 311 309 309 310 310 314 326 330 326 323 321 323 326 326 326 326 326 327 327 327 328 328 329 330 331 333 332 332 332 333 334 335 336 335 335 337 337 335 337 335 334 333 335
311 311 309 309 310 313 318 325 330 331 329 325 323 324 327 326 326 326 325 327 326 327 329 329 329 329 330 330 331 331 332 334 335 334 334 335 335 337 337 338 338 340 339 341
311 311 310 309 309 318 323 324 327 326 329 328 329 324 326 326 328 327 328 332 329 330 331 331 330 330 330 329 330 330 332 337 335 335 335 335 336 336 335 336 337 338 338 339
311 311 310 309 309 311 323 323 322 324 325 328 328 328 328 328 329 329 330 330 333 333 334 334 333 333 332 331 331 333 334 336 338 339 337 336 338 336 335 336 337 338 341 342
311 311 309 309 308 308 313 320 319 324 327 326 328 329 329 329 329 331 330 330 331 331 331 332 331 330 330 330 331 331 333 339 338 337 337 339 336 335 336 339 338 338 340 339
311 311 309 309 308 308 311 318 318 322 327 326 325 326 329 330 329 329 329 331 330 329 329 330 331 333 334 334 332 331 330 331 334 337 335 335 334 335 337 337 338 338 339 337
311 311 309 308 308 308 309 318 316 317 322 326 323 324 323 325 326 327 326 325 327 328 329 329 333 334 335 336 336 334 332 335 334 334 334 336 336 336 335 335 337 342 341 342
310 310 309 308 308 308 309 315 318 317 319 321 321 323 325 324 323 323 324 326 327 326 327 329 331 331 332 333 334 334 335 338 336 336 337 335 336 336 335 338 344 341 339 338
309 309 308 308 308 308 308 315 318 316 317 318 319 319 319 321 321 323 324 324 324 323 324 327 328 329 330 332 333 334 336 338 336 338 339 338 334 335 342 339 337 340 344 344
308 309 308 308 308 308 308 316 317 318 317 318 319 319 319 319 319 322 323 322 324 327 330 332 332 331 332 334 333 333 333 336 338 338 338 336 335 335 336 334 333 334 336 339
307 308 308 308 308 308 308 309 316 319 321 323 325 325 325 322 319 318 319 320 324 325 327 326 327 327 328 329 329 331 331 334 335 336 334 336 334 332 331 330 330 330 333 333
306 307 307 308 308 308 308 310 314 318 321 324 326 323 322 323 322 320 318 319 324 323 322 324 325 326 326 326 327 328 327 328 329 331 333 332 333 330 328 327 328 330 332 333
306 307 307 308 308 308 309 312 313 318 320 325 323 323 321 323 322 323 323 322 322 322 324 326 327 327 328 328 328 326 326 329 329 330 329 329 328 328 325 328 331 332 331 334
308 308 309 309 308 308 314 322 321 320 321 321 324 323 322 322 323 324 324 323 323 324 325 326 326 327 326 327 326 325 326 328 328 328 327 326 326 326 326 326 327 329 332 338
309 309 309 308 308 311 316 322 323 319 320 322 325 324 321 323 324 324 323 324 324 324 325 325 325 326 325 326 327 326 329 330 329 328 326 326 327 326 325 326 327 329 332 338
310 309 308 308 312 316 317 316 313 315 320 322 324 325 326 325 324 325 325 326 325 324 325 325 325 325 326 326 326 329 330 329 328 326 326 326 325 326 326 328 327 328 330 337
309 308 309 314 316 321 322 322 318 316 321 325 324 325 330 327 326 327 327 326 327 326 327 326 326 326 327 330 329 330 328 328 327 326 326 326 326 326 327 327 328 328 329 332
315 314 319 323 322 319 318 319 320 322 322 320 321 322 326 324 325 325 324 325 326 326 326 326 327 328 327 328 327 327 326 326 326 326 325 325 326 326 328 328 328 329 332 334
317 317 318 317 316 319 321 322 324 325 325 324 323 321 324 326 326 329 326 327 328 327 327 328 326 328 329 328 327 325 324 324 324 324 324 324 325 326 327 328 330 331 333 333
314 314 313 313 316 320 322 323 324 326 327 326 325 325 325 327 326 327 326 326 326 327 328 329 327 332 328 327 326 325 324 324 323 323 323 324 325 325 326 328 330 331 332 332
316 316 320 321 320 321 323 324 327 327 325 326 325 328 324 325 324 326 327 327 327 326 328 326 333 330 328 327 325 324 323 322 322 321 322 324 324 325 325 327 329 330 330 329
318 319 320 324 323 323 323 324 326 324 325 324 324 325 324 326 327 326 327 327 328 327 327 329 332 329 328 325 324 323 322 321 321 321 322 323 323 324 324 326 328 329 328 328
317 315 320 323 322 322 322 322 323 322 323 323 324 324 323 327 327 328 328 327 328 325 328 330 328 328 328 325 324 322 322 322 322 322 322 322 323 323 324 325 326 328 326 326
314 317 320 320 321 321 321 321 321 320 321 323 323 325 325 325 327 326 326 324 325 328 327 324 327 328 327 324 323 322 322 323 322 323 324 324 324 324 324 324 323 324 327 325
316 318 318 319 319 320 321 321 320 321 322 327 324 324 324 323 325 325 324 325 326 325 323 326 327 327 326 324 323 323 322 322 323 324 324 324 323 323 323 322 320 322 324 324
Wind_Speed
23 23 23 24 24 18 12 7 8 8 11 12 14 13 19 25 19 6 6 14 13 13 14 9 9 16 13 12 10 10 14 17 16 22 20 20 18 17 19 13 13 13 14 15
23 23 22 21 23 22 18 7 11 6 11 7 11 16 20 22 18 15 13 9 14 14 14 12 13 15 22 7 5 8 11 9 13 15 15 18 13 19 18 15 18 18 15 14
23 23 22 19 18 18 14 7 4 9 12 19 18 16 16 17 13 12 16 15 14 13 12 13 14 16 15 9 3 4 7 15 18 16 15 15 3 17 14 18 12 16 16 19
22 23 22 20 15 13 10 7 8 14 5 13 16 17 16 14 14 19 11 13 17 15 14 15 17 18 18 21 16 10 11 17 18 20 23 26 23 10 20 17 15 11 17 20
21 22 22 21 15 4 5 9 10 19 20 14 8 10 14 16 13 12 11 12 14 15 13 12 14 16 16 14 15 17 15 16 17 20 21 22 26 23 24 10 4 17 23 19
20 21 20 20 17 10 5 12 9 11 13 12 11 10 11 12 11 16 3 12 7 5 9 12 16 19 20 19 15 14 14 14 12 16 18 19 16 24 20 24 12 19 13 15
19 20 19 17 16 14 8 9 13 12 10 11 10 8 7 9 5 7 11 11 6 10 10 16 18 21 24 22 18 21 16 14 11 15 17 23 18 18 13 17 18 9 11 13
19 19 18 15 14 12 8 9 10 9 9 17 10 12 7 9 12 9 14 13 6 11 10 11 12 13 16 17 19 18 18 16 13 14 15 22 23 11 11 11 10 12 13 13
18 17 17 14 14 13 9 5 6 9 9 7 13 14 10 9 10 12 19 17 12 8 9 10 12 11 14 8 16 16 18 16 12 10 17 21 17 15 20 8 7 7 3 3
17 16 15 14 13 13 11 2 9 6 13 11 8 9 9 13 10 7 9 9 2 9 9 10 11 13 15 13 13 11 6 5 11 9 12 9 13 22 23 10 8 17 16 19
16 14 13 14 13 12 11 4 7 6 9 21 14 11 12 11 8 8 13 6 9 8 10 9 10 11 13 13 13 7 9 9 10 8 10 14 21 8 7 14 27 27 27 26
15 15 14 13 13 12 10 5 7 9 10 14 16 18 17 14 11 10 6 10 7 7 6 6 5 8 6 10 10 10 6 8 5 4 4 9 14 16 10 14 18 25 29 30
16 15 14 14 13 12 12 10 7 13 15 22 19 14 9 9 14 15 9 8 6 3 4 8 5 4 5 8 8 12 7 11 6 9 10 12 11 13 14 14 19 22 23 26
16 15 14 14 13 13 12 10 6 7 11 7 5 3 6 5 7 8 12 13 7 9 9 12 7 8 7 6 9 9 12 16 9 8 10 19 6 19 21 21 21 21 22 25
17 16 15 14 13 13 12 9 4 6 5 7 16 15 11 5 7 7 7 9 10 10 11 7 7 9 5 6 6 8 9 6 6 7 12 13 18 25 27 22 24 24 28 18
18 17 15 14 13 10 6 1 1 4 4 7 4 7 7 7 6 9 9 8 9 11 11 8 8 5 2 3 6 12 13 15 13 10 14 18 20 21 21 23 24 24 22 9
18 16 15 12 9 5 3 1 5 5 4 6 7 6 11 6 6 8 10 10 11 12 12 12 13 11 4 5 9 8 8 9 11 13 18 18 17 23 23 24 22 19 21 10
18 13 10 6 3 3 4 4 4 4 5 7 4 7 5 7 8 12 9 8 10 13 11 12 11 11 7 6 11 6 11 9 12 16 18 22 24 25 24 24 23 23 25 10
14 9 4 1 1 2 4 5 7 7 6 7 6 8 4 2 10 2 4 5 8 8 8 14 6 8 5 6 4 3 6 10 12 13 16 19 20 23 25 24 25 26 23 10
12 6 2 4 1 5 7 4 2 5 6 7 7 14 7 3 5 5 5 6 4 4 8 10 5 6 3 3 7 4 4 8 11 14 15 18 17 19 24 25 24 26 19 9
8 5 3 5 9 3 4 5 6 7 5 8 10 15 6 3 4 3 4 1 3 4 3 4 3 3 6 5 2 3 5 9 11 12 15 17 18 18 19 21 23 28 12 10
12 10 12 7 4 6 5 4 5 6 4 4 7 8 9 3 2 4 2 4 2 4 3 3 3 5 7 3 2 5 8 11 14 13 15 14 16 17 19 19 20 20 12 7
5 3 4 6 6 2 6 8 5 5 5 7 6 4 3 2 4 2 1 4 3 4 4 3 3 9 5 2 6 9 10 13 13 15 14 14 16 15 17 19 17 14 10 5
5 4 4 5 6 6 8 9 3 1 13 7 6 5 3 4 1 2 4 3 3 4 3 0 4 4 1 3 6 8 11 12 13 14 14 11 13 15 15 15 13 9 3 9
5 2 5 7 12 4 12 5 1 3 14 2 1 4 6 4 3 3 3 3 5 2 2 4 10 5 2 3 4 7 10 11 12 14 14 13 12 13 12 12 11 7 7 8
5 7 9 14 12 11 8 12 7 5 6 7 3 4 3 3 2 5 5 5 0 3 2 4 10 5 1 4 5 8 10 11 12 12 13 14 13 12 10 9 9 8 7 12
5 8 15 20 19 17 9 6 5 14 6 6 3 3 6 3 3 7 5 1 3 5 2 6 6 5 3 3 6 8 10 12 12 11 13 10 9 9 9 5 7 8 11 15
Wind_Direction
347 348 347 343 339 341 336 282 263 170 175 200 226 237 241 265 284 214 230 276 289 308 313 296 271 285 299 33 325 257 265 247 264 263 255 258 256 249 262 251 247 245 261 283
346 348 348 348 343 344 341 273 229 192 190 235 235 239 245 257 254 244 267 248 261 275 276 282 279 277 287 353 332 2 325 290 256 259 264 265 253 253 234 256 270 277 280 275
343 347 347 348 344 335 328 284 248 158 208 244 277 288 244 239 249 274 282 288 281 281 272 270 270 280 288 304 242 51 306 275 275 287 284 306 208 290 294 305 277 279 273 278
343 346 347 346 343 323 319 245 266 2 202 214 231 258 279 286 224 231 233 264 253 262 266 265 265 262 262 271 269 230 257 267 274 280 287 290 299 216 269 260 326 1 338 28
343 347 349 349 351 321 300 319 345 341 299 294 293 260 248 269 271 233 218 220 259 275 273 255 277 285 285 266 269 260 230 258 260 271 282 291 287 285 289 228 264 312 301 317
342 346 351 353 359 3 335 357 325 299 290 273 261 249 259 242 249 275 276 264 298 264 340 344 315 303 301 297 288 285 289 290 293 285 294 291 296 288 299 316 311 342 335 360
340 343 349 354 360 8 343 335 327 286 282 269 267 284 278 273 275 305 278 243 250 266 338 307 288 271 262 263 269 270 264 263 270 276 286 278 286 283 313 49 343 334 337 325
336 340 344 349 352 354 2 7 330 313 294 304 315 328 277 279 288 262 274 283 255 284 301 281 274 267 251 236 242 241 247 252 253 254 250 267 273 320 356 355 278 232 217 242
331 338 340 345 349 347 350 45 325 298 287 25 352 318 326 300 277 247 232 242 252 287 283 277 272 266 280 264 216 228 232 233 248 267 275 282 302 15 342 311 267 37 176 101
329 335 338 339 351 346 349 227 335 307 289 273 352 340 336 334 322 299 324 350 233 267 255 261 264 268 270 265 267 276 260 268 284 300 300 295 2 354 345 290 1 336 310 302
328 330 335 337 344 348 350 256 313 335 293 283 295 297 293 290 268 287 17 289 247 244 253 251 268 269 278 297 300 320 277 294 281 249 262 297 26 331 24 356 3 355 344 339
330 329 329 332 337 341 342 327 317 312 285 264 292 281 268 257 261 297 301 322 311 346 315 349 330 311 320 317 295 313 296 354 353 332 8 81 50 59 40 3 342 340 331 336
330 327 326 326 328 330 326 320 347 328 289 289 259 264 241 248 245 235 265 263 343 18 356 304 302 310 310 287 294 333 336 35 330 344 326 44 38 20 1 339 327 324 321 334
329 325 322 321 322 320 316 306 271 317 307 277 168 206 233 232 222 220 231 254 283 278 273 277 281 284 308 296 316 319 304 315 335 303 350 353 316 351 339 322 314 316 321 326
329 324 319 317 317 317 311 304 274 265 290 315 304 309 245 231 207 225 234 238 246 260 263 247 252 275 329 325 318 285 303 22 332 334 354 339 331 325 320 324 327 320 322 324
329 323 318 313 312 313 339 223 116 247 289 300 287 285 211 235 234 239 232 231 232 246 265 270 267 319 129 273 281 317 13 33 6 350 341 323 316 313 314 314 315 317 317 318
328 323 316 308 298 269 223 7 197 221 257 259 276 255 179 210 230 227 222 219 236 246 258 252 256 258 205 263 274 293 26 15 354 330 317 308 308 310 309 303 308 315 311 310
328 326 320 311 277 271 290 268 274 276 263 256 274 269 169 169 217 220 216 214 216 235 247 263 271 271 246 251 260 16 11 344 331 327 313 303 304 304 309 312 314 326 316 290
337 334 331 282 239 249 232 270 297 256 245 301 260 271 42 182 251 122 188 248 274 245 220 229 227 242 242 70 25 46 355 338 323 311 315 317 315 315 314 313 313 316 313 314
4 353 303 215 202 295 289 300 205 211 216 234 253 281 280 265 214 214 209 202 244 255 217 227 227 263 110 119 88 61 0 325 314 312 313 316 317 319 321 318 316 310 318 332
347 312 315 323 306 294 234 247 207 195 228 220 242 247 271 350 293 358 322 204 285 251 198 226 212 205 133 102 57 14 325 309 308 307 306 304 309 317 319 317 314 316 319 298
313 289 273 286 242 228 239 232 226 197 239 197 226 209 210 144 294 248 189 254 287 269 166 249 230 100 114 121 337 322 317 314 307 306 305 310 318 316 317 316 316 310 310 245
316 296 241 214 232 352 222 218 207 212 188 172 189 183 214 162 241 296 267 270 222 315 238 232 56 131 111 39 322 316 315 305 305 303 306 311 304 314 315 313 314 325 299 222
267 259 277 237 208 231 223 245 72 49 311 168 186 115 292 139 245 177 251 213 263 238 227 264 126 143 78 328 314 317 314 309 305 300 306 304 294 305 314 316 320 319 0 165
273 255 253 234 261 298 292 298 226 264 253 237 155 158 223 189 213 215 239 237 237 213 50 135 138 178 211 304 321 323 315 313 309 306 308 311 299 297 302 303 313 307 220 161
242 240 253 266 288 274 265 248 260 269 274 225 197 105 316 202 203 218 225 235 321 85 136 170 160 152 284 318 322 318 312 309 305 303 299 290 285 285 290 300 298 275 222 187
237 249 245 260 276 275 254 294 345 318 296 244 212 221 214 239 217 226 217 257 126 150 247 113 87 81 43 356 324 320 318 313 311 308 300 284 297 308 292 275 299 233 186 163